COSMOS 1161

Satellite information

Favourite Embed

Satellite Type and Status

PAYLOADIN ORBIT

Key statistics

Satellite COSMOS 1161 at a glance.

Uptime

16585

Days in orbit

Revolutions

≈ 12.5

Per day

Orbit

LEO

Low Earth Orbit

Inclination

74.0

Latest

Satellite identification and parameters

Extended collection of information and parameters for COSMOS 1161.

Object identification

Identified? True

Debris? False

Object name: COSMOS 1161

International designator: 1980-012F

Object number (NORAD): 11696

Object ID (CCSDS): 11696

Country: COMMONWEALTH OF INDEPENDENT STATES (CIS)

Current information (Y/N): Y

RCS size: MEDIUM

Orbital parameters

Period: 115.647 minutes

Inclination: 74.0201 deg

SMA: 7862.916 km

Apoapsis: 1502.067 km

Periapsis: 1467.495 km

RAAN: 255.8904 deg

Eccentricy: 0.0021984

Argument of periapsis: 20.074 deg

Mean anomaly: 340.1168 deg

Mean motion: 12.45166148 rev/day

Mean motion (dot): 0.00000008 rev/day2

B* drag term: 0.00016367 1/REarth

Two-line elements (TLE)

Creation date: July 9, 2025, 2:22 a.m.

Reference frame: TEME

Reference center: EARTH

Epoch: July 8, 2025, 1:51 p.m. UTC

TLE line 0: 0 COSMOS 1161

TLE line 1: 1 11696U 80012F 25189.57754228 .00000008 00000-0 16367-3 0 9993

TLE line 2: 2 11696 74.0201 255.8904 0021984 20.0740 340.1168 12.45166148 63841

Live tracking on map

Real-time ground track for satellite COSMOS 1161.

In-orbit conjunctions

There are no conjunctions computed for COSMOS 1161, at the moment. Check back to stay up to date, as we update our databases every day.

Go to all conjunctions

Associated space launch

Military communications satellites

COSMOS 1161 was lifted into orbit during the mission ‘Kosmos-3M | Strela-1M 185-192’, on board a Kosmos-3M space rocket.

The launch took place on Feb. 11, 1980, 11:32 p.m. from 132/2.

For more information about the launch, click the button.

Launch to space Kosmos-3M | Strela-1M 185-192
Kosmos-3M | Strela-1M 185-192

Agency: N/A

Status: Launch Successful

Launch date: Feb. 11, 1980, 11:32 p.m. UTC

Rocket: Kosmos-3M

Launch pad: 132/2

Location: Plesetsk Cosmodrome, Russian Federation

...

Latest news about this satellite

There are no fresh news available about this satellite. Check back as we update our databases every day.


Newsletter sign-up

Weekly statistics, charts and insights to help you stay on top of the space industry.